Location: Karlsruhe
(49.0131°N, 8.3874°E)
Time: 11:59:00
(UTC+02:00)

Envisat - Visible Passes

Search period start: 20 May 2018 00:00
Search period end: 30 May 2018 00:00
Orbit: 764 x 766 km, 98.2° (Epoch: 19 May)

Date Brightness Start Highest point End Pass type
(mag) Time Alt. Az. Time Alt. Az. Time Alt. Az.
22 May 5.5 21:59:13 10° SW 22:02:44 19° W 22:06:17 10° NW visible
24 May 5.9 22:27:20 10° W 22:28:41 11° W 22:30:03 10° WNW visible
25 May 5.3 21:47:28 10° SW 21:51:27 23° W 21:55:28 10° NW visible
27 May 5.7 22:14:47 10° WSW 22:17:22 14° W 22:19:57 10° NW visible
